FW3268 Weather Reports


time (UTC)temp
C
wind
direction
speed
KPH
gust
KPH
rain 1hr
cm
rain 24hr
cm
rain mn
cm
humidity
%
barometer
mb
20260505041501 19 236 20.9 37.0 0.00 0.00 0.00 62 1002.2
20260505034503 19 225 16.1 22.5 0.00 0.00 0.00 62 1002.2
20260505033003 19 221 19.3 25.7 0.00 0.00 0.00 61 1002.2
20260505031502 19 234 17.7 25.7 0.00 0.00 0.00 61 1002.4
20260505030005 19 228 17.7 24.1 0.00 0.00 0.00 62 1002.5
20260505024502 19 221 14.5 20.9 0.00 0.00 0.00 63 1002.6
20260505023002 19 219 14.5 20.9 0.00 0.00 0.00 64 1002.7
20260505021502 19 228 16.1 24.1 0.00 0.00 0.00 63 1002.6
20260505020006 19 230 14.5 20.9 0.00 0.00 0.00 63 1002.7
20260505014502 20 231 12.9 17.7 0.00 0.00 0.00 62 1002.5
20260505013003 20 220 12.9 19.3 0.00 0.00 0.00 60 1002.3
20260505010004 20 215 11.3 16.1 0.00 0.00 0.00 58 1002.1
20260505004501 21 211 14.5 22.5 0.00 0.00 0.00 57 1001.9
20260505003002 21 219 19.3 29.0 0.00 0.00 0.00 54 1001.6
20260505001502 21 238 20.9 29.0 0.00 0.00 0.00 53 1001.6
20260505000004 22 240 22.5 32.2 0.00 0.00 0.00 52 1001.6
20260504234502 22 235 25.7 40.2 0.00 0.00 0.00 50 1001.8
20260504233002 22 245 22.5 30.6 0.00 0.00 0.00 53 1002.1
20260504231501 22 243 24.1 43.5 0.00 0.00 0.00 51 1002.4
20260504230005 22 230 25.7 37.0 0.00 0.00 0.00 58 1002.6
20260504223001 22 197 19.3 29.0 0.00 0.00 0.00 62 1002.7
20260504221501 22 229 20.9 29.0 0.00 0.00 0.00 64 1003.0
20260504220004 22 238 20.9 33.8 0.00 0.00 0.00 63 1003.0
20260504214501 21 261 27.4 38.6 0.00 0.03 0.00 61 1003.1
20260504213002 22 203 30.6 41.8 0.00 0.03 0.00 57 1003.2
20260504211501 22 224 32.2 45.1 0.00 0.03 0.00 57 1003.5
20260504210005 21 250 33.8 49.9 0.00 0.03 0.00 56 1003.7
20260504204506 21 257 29.0 38.6 0.00 0.03 0.00 57 1003.6
20260504203001 22 258 30.6 40.2 0.00 0.03 0.00 55 1003.6
20260504201502 22 257 29.0 43.5 0.00 0.03 0.00 52 1003.8
20260504194501 22 253 27.4 43.5 0.00 0.08 0.00 55 1003.8
20260504193002 22 250 27.4 38.6 0.00 0.08 0.00 56 1004.3
20260504191502 21 244 32.2 45.1 0.00 0.08 0.00 56 1004.3
20260504190004 22 259 29.0 48.3 0.00 0.08 0.00 56 1004.4
20260504184500 22 258 32.2 46.7 0.00 0.18 0.00 56 1004.7
20260504183000 22 247 33.8 49.9 0.00 0.18 0.00 53 1004.6
20260504181503 22 243 33.8 49.9 0.00 0.18 0.00 54 1004.3
20260504180004 23 245 33.8 48.3 0.00 0.18 0.00 53 1004.2
20260504174504 22 265 32.2 45.1 0.00 0.18 0.00 55 1004.4
20260504173002 22 232 30.6 46.7 0.00 0.18 0.00 56 1004.5
20260504081500 10 225 11.3 17.7 0.00 0.18 0.00 75 1007.4
20260504050004 12 220 11.3 17.7 0.00 0.18 0.00 71 1008.9
20260504044502 11 222 11.3 17.7 0.00 0.18 0.00 71 1008.9
20260504043001 11 212 11.3 17.7 0.00 0.18 0.00 71 1009.1